Location: Cazarilh
(42.9578°N, 0.5819°E)
Time: 13:09:04
(UTC+00:00)

Meteor 2-4 Rocket - Pass Details

Date: 11 December 2019
Orbit: 798 x 909 km, 81.2° (Epoch: 24 January)

Event Time Altitude Azimuth Distance (km) Brightness Sun altitude
Rises 05:58:42 0° 349° (NNW) 3,396 6.6 -14.0°
Reaches altitude 10° 06:01:08 10° 349° (NNW) 2,442 5.8 -13.6°
Maximum altitude 06:06:39 84° 263° (W) 824 3.6 -12.7°
Drops below altitude 10° 06:12:00 10° 174° (S) 2,374 6.4 -11.7°
Sets 06:14:21 0° 174° (S) 3,294 7.2 -11.3°
